TimeCDT,TemperatureF,Dew PointF,Humidity,Sea Level PressureIn,VisibilityMPH,Wind Direction,Wind SpeedMPH,Gust SpeedMPH,PrecipitationIn,Events,Conditions,WindDirDegrees,DateUTC
12:52 AM,64.0,55.9,75,30.08,10.0,Calm,Calm,-,N/A,,Clear,0,2013-07-13 05:52:00
1:52 AM,59.0,54.0,83,30.09,10.0,Calm,Calm,-,N/A,,Clear,0,2013-07-13 06:52:00
2:52 AM,60.1,55.0,83,30.11,10.0,Calm,Calm,-,N/A,,Clear,0,2013-07-13 07:52:00
3:52 AM,57.0,54.0,89,30.08,10.0,Calm,Calm,-,N/A,,Clear,0,2013-07-13 08:52:00
4:52 AM,57.0,54.0,89,30.10,10.0,Calm,Calm,-,N/A,,Clear,0,2013-07-13 09:52:00
5:52 AM,57.0,54.0,89,30.10,10.0,SSE,3.5,-,N/A,,Clear,160,2013-07-13 10:52:00
6:52 AM,63.0,57.0,81,30.12,10.0,ESE,4.6,-,N/A,,Clear,110,2013-07-13 11:52:00
7:52 AM,66.9,59.0,76,30.12,10.0,Calm,Calm,-,N/A,,Clear,0,2013-07-13 12:52:00
8:52 AM,71.1,61.0,70,30.14,10.0,SSE,5.8,-,N/A,,Clear,160,2013-07-13 13:52:00
9:52 AM,73.9,61.0,64,30.13,10.0,SSE,5.8,-,N/A,,Clear,160,2013-07-13 14:52:00
10:52 AM,75.9,62.1,62,30.13,10.0,SSW,6.9,-,N/A,,Clear,200,2013-07-13 15:52:00
11:52 AM,77.0,61.0,58,30.12,10.0,SE,5.8,-,N/A,,Clear,140,2013-07-13 16:52:00
12:52 PM,79.0,61.0,54,30.12,10.0,Variable,4.6,-,N/A,,Clear,0,2013-07-13 17:52:00
1:52 PM,81.0,60.1,49,30.11,10.0,Calm,Calm,-,N/A,,Clear,0,2013-07-13 18:52:00
2:52 PM,82.9,60.1,46,30.11,10.0,Variable,3.5,-,N/A,,Clear,0,2013-07-13 19:52:00
3:52 PM,84.0,61.0,46,30.09,10.0,ENE,8.1,-,N/A,,Clear,60,2013-07-13 20:52:00
4:52 PM,82.0,61.0,49,30.08,10.0,ESE,11.5,-,N/A,,Clear,120,2013-07-13 21:52:00
5:52 PM,82.0,61.0,49,30.07,10.0,East,12.7,-,N/A,,Clear,100,2013-07-13 22:52:00
6:52 PM,81.0,61.0,50,30.07,10.0,East,12.7,-,N/A,,Clear,90,2013-07-13 23:52:00
7:52 PM,75.9,62.1,62,30.07,10.0,East,5.8,-,N/A,,Clear,100,2013-07-14 00:52:00
8:52 PM,70.0,62.1,76,30.08,10.0,ESE,4.6,-,N/A,,Clear,120,2013-07-14 01:52:00
9:52 PM,68.0,61.0,78,30.10,10.0,East,5.8,-,N/A,,Clear,100,2013-07-14 02:52:00
10:52 PM,68.0,61.0,78,30.11,10.0,East,4.6,-,N/A,,Clear,90,2013-07-14 03:52:00
11:52 PM,66.0,61.0,84,30.11,10.0,ESE,5.8,-,N/A,,Clear,110,2013-07-14 04:52:00